This demonstration page uses our WeatherBlox Daily Observations layout. Learn more.

Left ArrowRight Arrow

Hourly Observations for September 2, 2018

Temp ( °F °C ) Dew Point ( °F °C ) Humidity (%) Winds ( mph kmh ) Pressure ( in mb ) Visibility ( mi km ) Precip ( " mm )
12:57 am 00:57 Clear 69 20.6 66 18.9 90 90 S 16 26 29.83 1010 10 16 0.00 0.03
1:57 am 01:57 Clear 66 18.9 62 16.7 87 87 SSE 13 20 29.88 1012 10 16 0.00 0.00
2:57 am 02:57 Clear 67 19.4 62 16.7 84 84 SSE 10 17 29.88 1012 10 16 0.00 0.00
3:57 am 03:57 Mostly Cloudy 66 18.9 62 16.7 87 87 S 15 24 29.88 1012 10 16 0.00 0.00
4:57 am 04:57 Partly Cloudy 65 18.3 61 16.1 87 87 SSE 12 19 29.86 1011 10 16 0.00 0.00
5:57 am 05:57 Mostly Clear 66 18.9 61 16.1 84 84 SSE 10 17 29.86 1011 10 16 0.00 0.00
6:57 am 06:57 Mostly Cloudy 65 18.3 62 16.7 90 90 S 3 6 29.88 1012 10 16 0.00 0.00
7:57 am 07:57 Cloudy 68 20 64 17.8 87 87 S 9 15 29.91 1013 10 16 0.00 0.03
8:57 am 08:57 Mostly Cloudy 69 20.6 65 18.3 87 87 S 14 22 29.92 1013 10 16 0.00 0.00
9:57 am 09:57 Cloudy 69 20.6 66 18.9 90 90 S 15 24 29.94 1014 10 16 0.00 0.00
10:57 am 10:57 Sunny 69 20.6 67 19.4 93 93 SSW 15 24 29.94 1014 10 16 0.02 0.51
11:57 am 11:57 Mostly Cloudy 71 21.7 67 19.4 87 87 WSW 9 15 29.95 1014 10 16 0.00 0.00
12:57 pm 12:57 Mostly Sunny 76 24.4 67 19.4 74 74 VRB 3 6 29.95 1014 10 16 0.00 0.00
1:57 pm 13:57 Cloudy 77 25 67 19.4 71 71 ENE 3 6 29.96 1014 10 16 0.00 0.00
2:57 pm 14:57 Cloudy 79 26.1 69 20.6 72 72 NE 8 13 29.96 1015 10 16 0.00 0.00
3:45 pm 15:45 Cloudy 77 25 70 21 79 79 E 6 9 29.88 1012 10 16 0.00 0.00
3:55 pm 15:55 Cloudy with Thunderstorms 75 24 70 21 83 83 E 5 7 29.88 1012 9 14 0.00 0.00
3:57 pm 15:57 Cloudy with Thunderstorms 75 23.9 69 20.6 82 82 ENE 6 9 29.95 1014 9 14 0.01 0.25
4:15 pm 16:15 Cloudy with Thunderstorms 75 24 70 21 83 83 ESE 8 13 29.88 1012 10 16 0.00 0.00
4:23 pm 16:23 Cloudy with Thunderstorms 75 24 70 21 83 83 SE 3 6 29.88 1012 10 16 0.00 0.00
4:53 pm 16:53 Cloudy 73 23 68 20 83 83 NW 14 22 29.91 1013 10 16 0.00 0.00
4:54 pm 16:54 Cloudy 73 22.8 67 19.4 81 81 NW 13 20 29.96 1015 10 16 0.00 0.03
5:57 pm 17:57 Mostly Cloudy 73 22.8 69 20.6 87 87 N 8 13 29.93 1013 10 16 0.00 0.00
6:57 pm 18:57 Cloudy 74 23.3 70 21.1 88 88 NE 5 7 29.94 1014 10 16 0.00 0.00
7:57 pm 19:57 Sunny 73 22.8 68 20 84 84 SE 3 6 29.94 1014 10 16 0.00 0.00
8:57 pm 20:57 Clear 71 21.7 68 20 90 90 ESE 8 13 29.96 1015 10 16 0.00 0.03
9:57 pm 21:57 Partly Cloudy 70 21.1 69 20.6 97 97 E 5 7 30.01 1016 10 16 0.00 0.00
10:10 pm 22:10 Mostly Cloudy 70 21 70 21 100 100 ENE 5 7 29.97 1015 8 13 0.00 0.00
10:18 pm 22:18 Cloudy 70 21 70 21 100 100 E 5 7 29.97 1015 10 16 0.00 0.00
10:43 pm 22:43 Cloudy 70 21 70 21 100 100 ESE 6 9 29.97 1015 10 16 0.00 0.00
10:57 pm 22:57 Cloudy 70 21.1 68 20 93 93 SE 8 13 30.01 1016 10 16 0.00 0.00
11:04 pm 23:04 Cloudy 70 21 68 20 94 94 ESE 7 11 29.97 1015 10 16 0.00 0.00
11:57 pm 23:57 Cloudy 69 20.6 68 20 96 96 ESE 8 13 30.02 1017 10 16 0.00 0.00

Powered by AerisWeather